Weather History for Bonilla Island, BC

Change the Weather History Date:

Sunday, March 10, 2013

  Actual Average Record
Temperature  
Mean Temperature 41 °F -  
Max Temperature 43 °F - - ()
Min Temperature 39 °F - - ()
Degree Days  
Heating Degree Days 24    
Moisture  
Dew Point 31 °F    
Average Humidity 66    
Maximum Humidity 76    
Minimum Humidity 52    
Precipitation  
Precipitation 0.00 in - - ()
Sea Level Pressure  
Sea Level Pressure 30.45 in    
Wind  
Wind Speed 10 mph ()    
Max Wind Speed 16 mph    
Max Gust Speed -    
T = Trace of Precipitation, MM = Missing Value Source: Averaged Metar Reports

Daily Weather History Graph

Daily Weather History Graph

Search for Another Location

Airport:

Trip Planner

Search our weather history database for the weather conditions in past years. The results will help you decide how hot, cold, wet, or windy it might be!

Date:

Astronomy

Mar. 10, 2013 Rise Set
Actual Time 8:08 AM PDT 7:38 PM PDT
Civil Twilight 7:33 AM PDT 8:13 PM PDT
Nautical Twilight 6:52 AM PDT 8:53 PM PDT
Astronomical Twilight 6:11 AM PDT 9:35 PM PDT
Moon 7:16 AM PDT (3/10) 6:53 PM PDT (3/10)
Length of Visible Light 12h 39m
Length of Day
11h 30m
Waning Crescent, 1% of the Moon is Illuminated
Mar 10
Waning Crescent
Mar 11
New
Mar 19
First Quarter
Mar 27
Full
Apr 2
Last Quarter

Hourly Weather History & Observations

Time (PDT) Temp. Windchill Dew Point Humidity Pressure Visibility Wind Dir Wind Speed Gust Speed Precip Events Conditions
12:00 AM 42.6 °F 34.9 °F 33.8 °F 71% 30.43 in - West 16.1 mph - N/A   Unknown
1:00 AM 42.3 °F 35.9 °F 33.3 °F 70% 30.44 in - West 11.5 mph - N/A   Unknown
3:00 AM 41.9 °F 34.6 °F 31.6 °F 67% 30.45 in - West 13.8 mph - N/A   Unknown
4:00 AM 41.7 °F 34.1 °F 30.9 °F 66% 30.45 in - West 15.0 mph - N/A   Unknown
5:00 AM 41 °F - 32 °F 61% 30.45 in - West 11.5 mph - -  
6:00 AM 41.0 °F 34.7 °F 31.8 °F 70% 30.46 in - WNW 10.4 mph - N/A   Unknown
7:00 AM 41.2 °F 34.1 °F 31.3 °F 68% 30.46 in - West 12.7 mph - N/A   Unknown
8:00 AM 41.0 °F 33.9 °F 31.5 °F 69% 30.47 in - West 12.7 mph - N/A   Unknown
9:00 AM 40.6 °F 34.3 °F 30.0 °F 66% 30.46 in - WNW 10.4 mph - N/A   Unknown
10:00 AM 41.2 °F 35.5 °F 30.2 °F 65% 30.46 in - WNW 9.2 mph - N/A   Unknown
11:00 AM 41 °F - 29 °F 52% 30.46 in - West 10.4 mph - -  
11:00 AM 41.4 °F 35.2 °F 29.5 °F 63% 30.46 in - West 10.4 mph - N/A   Unknown
12:00 PM 41.4 °F 35.7 °F 28.9 °F 61% 30.46 in - West 9.2 mph - N/A   Unknown
1:00 PM 41.5 °F 35.9 °F 31.3 °F 67% 30.47 in - West 9.2 mph - N/A   Unknown
2:00 PM 41.7 °F 36.1 °F 31.6 °F 67% 30.46 in - SW 9.2 mph - N/A   Unknown
3:00 PM 42.3 °F 36.3 °F 30.6 °F 63% 30.45 in - West 10.4 mph - N/A   Unknown
4:00 PM 41.9 °F 36.3 °F 31.6 °F 67% 30.44 in - SW 9.2 mph - N/A   Unknown
5:00 PM 42 °F - 31 °F 55% 30.45 in - West 9.2 mph - -  
5:00 PM 41.9 °F 36.3 °F 31.3 °F 66% 30.45 in - West 9.2 mph - N/A   Unknown
6:00 PM 42.1 °F 36.1 °F 31.3 °F 66% 30.43 in - WSW 10.4 mph - N/A   Unknown
7:00 PM 41.5 °F 35.4 °F 34.0 °F 75% 30.43 in - West 10.4 mph - N/A   Unknown
8:00 PM 41.7 °F 36.1 °F 32.9 °F 71% 30.44 in - West 9.2 mph - N/A   Unknown
9:00 PM 41.5 °F 37.1 °F 33.1 °F 72% 30.43 in - West 6.9 mph - N/A   Unknown
11:00 PM 39 °F - 30 °F 61% 30.43 in - NNE 2.3 mph - -  
11:00 PM 39.4 °F - 30.2 °F 70% 30.43 in - NNE 2.3 mph - N/A   Unknown
12:00 AM 41.0 °F 34.7 °F 33.8 °F 76% 30.44 in - WNW 10.4 mph - N/A   Unknown